Mazatlan Airport, Mexico

1:16 PM MST on November 20, 2017 (GMT -0700)
Gen Rafael Buelna International

Weather History for MMMZ - January, 2013

Change the Weather History Date:

Wednesday, January 9, 2013

  Actual Average Record
Temperature  
Mean Temperature 58 °F -  
Max Temperature 73 °F 78 °F 86 °F (2003)
Min Temperature 42 °F 51 °F 41 °F (1997)
Degree Days  
Heating Degree Days 8    
Growing Degree Days 8 (Base 50)    
Moisture  
Dew Point 42 °F    
Average Humidity 64    
Maximum Humidity 93    
Minimum Humidity 27    
Precipitation  
Precipitation 0.00 in - - ()
Sea Level Pressure  
Sea Level Pressure 29.96 in    
Wind  
Wind Speed 7 mph ()    
Max Wind Speed 12 mph    
Max Gust Speed -    
Visibility 12.2 miles    
Events      
Averages and records for this station are not official NWS values.
T = Trace of Precipitation, MM = Missing Value Source: Averaged Metar Reports

Daily Weather History Graph

Daily Weather History Graph

Search for Another Location

Airport or City:

Trip Planner

Search our weather history database for the weather conditions in past years. The results will help you decide how hot, cold, wet, or windy it might be!

Date:

Astronomy

Jan. 09, 2013 Rise Set
Actual Time 6:48 AM MST 5:36 PM MST
Civil Twilight 6:23 AM MST 6:01 PM MST
Nautical Twilight 5:56 AM MST 6:28 PM MST
Astronomical Twilight 5:28 AM MST 6:56 PM MST
Moon 4:30 AM MST (1/9) 3:41 PM MST (1/9)
Length of Visible Light 11h 37m
Length of Day
10h 48m
Waning Crescent, 6% of the Moon is Illuminated
Jan 9
Waning Crescent
Jan 11
New
Jan 18
First Quarter
Jan 26
Full
Feb 3
Last Quarter

Hourly Weather History & Observations

Time (MST) Temp. Windchill Dew Point Humidity Pressure Visibility Wind Dir Wind Speed Gust Speed Precip Events Conditions
12:45 AM 44.6 °F 40.2 °F 41.0 °F 87% 29.98 in 10.0 mi North 8.1 mph - N/A   Clear
1:48 AM 42.8 °F 37.5 °F 39.2 °F 87% 29.98 in 10.0 mi North 9.2 mph - N/A   Clear
2:45 AM 44.6 °F 39.7 °F 41.0 °F 87% 29.97 in 10.0 mi NNW 9.2 mph - N/A   Clear
3:45 AM 44.6 °F 39.7 °F 41.0 °F 87% 29.96 in 10.0 mi North 9.2 mph - N/A   Clear
4:48 AM 44.6 °F 40.2 °F 42.8 °F 93% 29.96 in 10.0 mi North 8.1 mph - N/A   Clear
5:46 AM 42.8 °F 38.6 °F 39.2 °F 87% 29.98 in 12.0 mi North 6.9 mph - N/A   Clear
6:41 AM 42.8 °F 38.0 °F 39.2 °F 87% 29.99 in 15.0 mi North 8.1 mph - N/A   Clear
7:45 AM 50.0 °F - 42.8 °F 76% 30.01 in 15.0 mi North 8.1 mph - N/A   Clear
8:41 AM 55.4 °F - 46.4 °F 72% 30.03 in 15.0 mi North 10.4 mph - N/A   Clear
9:40 AM 62.6 °F - 46.4 °F 55% 30.04 in 15.0 mi NNE 9.2 mph - N/A   Clear
10:48 AM 69.8 °F - 41.0 °F 35% 29.93 in 15.0 mi NNE 6.9 mph - N/A   Clear
11:44 AM 73.4 °F - 37.4 °F 27% 29.99 in 15.0 mi ENE 6.9 mph - N/A   Clear
12:47 PM 73.4 °F - 42.8 °F 33% 29.96 in 15.0 mi SW 9.2 mph - N/A   Clear
1:46 PM 73.4 °F - 42.8 °F 33% 29.94 in 15.0 mi SW 9.2 mph - N/A   Clear
2:44 PM 73.4 °F - 42.8 °F 33% 29.92 in 15.0 mi WSW 11.5 mph - N/A   Partly Cloudy
3:40 PM 73.4 °F - 42.8 °F 33% 29.92 in 15.0 mi SW 11.5 mph - N/A   Mostly Cloudy
4:42 PM 68.0 °F - 44.6 °F 43% 29.91 in 12.0 mi West 11.5 mph - N/A   Overcast
5:43 PM 64.4 °F - 44.6 °F 49% 29.93 in 10.0 mi West 9.2 mph - N/A   Mostly Cloudy
6:44 PM 60.8 °F - 44.6 °F 55% 29.95 in 10.0 mi NW 9.2 mph - N/A   Mostly Cloudy
7:40 PM 60.8 °F - 42.8 °F 52% 29.95 in 10.0 mi NW 8.1 mph - N/A   Mostly Cloudy
8:42 PM 55.4 °F - 42.8 °F 63% 29.95 in 10.0 mi North 6.9 mph - N/A   Mostly Cloudy
9:47 PM 50.0 °F - 42.8 °F 76% 29.95 in 10.0 mi NE 6.9 mph - N/A   Scattered Clouds
10:43 PM 48.2 °F - 44.6 °F 87% 29.95 in 10.0 mi Calm Calm - N/A   Scattered Clouds
11:42 PM 46.4 °F 44.3 °F 42.8 °F 87% 29.94 in 10.0 mi East 4.6 mph - N/A   Scattered Clouds